Location: Bakov nad Jizerou
(50.4784°N, 14.9394°E)
Time: 23:41:44
(UTC+00:00)

SJ 16-02 - Pass Details

Date: 16 June 2021
Orbit: 606 x 616 km, 75.0° (Epoch: 23 July)

Event Time Altitude Azimuth Distance (km) Brightness Sun altitude
Rises 23:48:28 0° 333° (NNW) 2,878 5.7 -15.4°
Reaches altitude 10° 23:50:45 10° 328° (NNW) 1,968 4.6 -15.3°
Maximum altitude 23:54:59 50° 254° (WSW) 782 1.7 -15.2°
Enters shadow 23:57:05 27° 193° (SSW) 1,182 2.2 -15.1°
